Location: Feigenhofen
(48.4939°N, 10.7793°E)
Time: 22:08:23
(UTC+00:00)

Meteor 1-28 Rocket - Pass Details

Date: 26 May 2022
Orbit: 499 x 518 km, 97.4° (Epoch: 24 June)

Event Time Altitude Azimuth Distance (km) Brightness Sun altitude
Exits shadow 02:03:48 14° 198° (SSW) 1,505 5.0 -10.7°
Maximum altitude 02:06:41 37° 262° (W) 813 3.8 -10.4°
Drops below altitude 10° 02:10:11 10° 331° (NNW) 1,737 6.1 -10.1°
Sets 02:12:24 0° 340° (NNW) 2,624 7.2 -9.8°
